Wind_Speed
19 20 20 20 20 20 20 20 19 17 16 16 17 18 18 19 20 21 22 22 22 22 22 23 24 25 25 23 23 23 23 23 22 21 21 20 20 21 21 19 16 12 11 13 16 18 20 21 22 23 22 22 24 25 25 25 24 23 23 23 22 20 17
20 20 20 21 21 21 20 19 18 16 15 16 17 18 18 19 20 21 23 22 23 23 22 23 24 25 25 24 24 24 24 24 24 23 23 22 21 21 21 21 20 18 13 13 17 20 20 19 19 22 23 21 22 24 26 27 27 26 25 25 25 25 23
20 20 21 22 22 22 21 20 19 17 17 17 18 18 19 20 20 22 23 24 24 24 24 24 25 26 26 26 25 26 26 26 25 24 23 23 22 22 21 21 22 22 18 15 17 20 21 20 19 22 24 23 22 23 24 27 29 29 29 28 28 28 27
20 21 22 23 23 22 22 20 19 18 18 18 18 19 19 20 21 23 24 25 26 25 24 25 26 27 27 26 26 27 26 26 26 26 25 24 23 22 22 22 21 22 21 17 17 18 21 21 21 22 24 23 23 24 24 26 29 30 31 32 31 30 30
20 21 22 23 22 22 21 19 19 18 18 18 18 19 19 20 21 22 23 25 26 26 25 26 27 28 27 26 27 27 27 27 27 27 26 25 24 23 23 23 23 24 23 20 18 18 18 19 20 22 23 22 22 25 26 26 28 30 31 32 33 33 32
20 21 22 22 21 19 19 19 19 19 19 19 19 19 20 21 22 23 24 25 26 26 27 27 28 29 28 28 28 29 29 29 28 28 28 27 26 24 23 23 23 24 24 23 22 20 18 18 19 21 23 21 20 23 25 25 28 30 29 29 31 33 33
21 22 21 20 19 19 19 19 19 19 19 19 19 20 21 22 22 23 25 26 27 27 28 29 30 30 30 30 31 32 31 30 30 29 29 29 27 25 24 23 22 21 22 23 23 21 20 19 19 21 23 22 20 21 23 23 24 27 28 27 28 30 32
22 22 20 18 18 19 19 19 20 20 20 20 21 22 22 21 22 23 25 26 28 28 28 30 31 31 32 32 32 33 33 32 32 30 30 30 29 27 26 25 23 22 21 21 21 21 21 20 20 21 23 22 19 19 21 22 21 24 27 27 26 28 30
21 22 21 20 19 19 19 19 21 21 20 21 22 22 23 23 23 24 26 28 29 29 29 30 31 32 33 32 32 33 33 33 32 31 32 32 30 28 27 26 25 23 22 21 20 20 20 19 20 22 22 21 20 20 22 22 22 23 25 25 25 27 28
22 22 23 22 21 20 20 21 23 23 21 22 23 23 24 25 26 27 29 31 33 34 33 32 32 34 33 33 33 33 32 32 31 31 32 33 31 30 29 27 25 23 22 21 19 20 19 18 20 21 21 21 23 24 24 23 22 24 26 24 21 22 26
22 22 23 23 23 22 23 25 26 25 24 24 24 24 24 26 28 30 32 34 35 37 37 34 32 33 33 33 33 32 32 31 30 30 31 32 31 31 31 30 27 26 24 22 20 20 20 20 21 22 23 23 24 24 25 24 22 22 24 21 15 14 19
21 22 22 22 24 24 25 26 26 24 24 24 24 24 24 25 27 28 31 34 35 36 37 34 32 32 32 32 32 31 31 31 31 31 31 31 31 31 31 32 32 31 29 27 23 20 19 20 20 22 25 27 26 24 24 23 21 19 20 19 16 14 18
20 22 22 22 24 24 25 24 24 22 23 24 25 24 23 25 26 27 29 32 34 35 35 34 33 32 31 32 31 30 29 30 30 31 31 31 31 31 31 32 34 34 33 32 30 26 25 24 21 20 21 24 26 25 22 20 19 19 20 19 19 19 25
21 22 22 22 22 23 23 23 22 21 22 23 24 23 23 24 26 28 30 33 35 35 35 34 33 32 31 30 29 28 28 28 29 30 30 31 31 32 33 32 33 34 34 34 33 32 32 32 29 26 23 20 20 21 20 19 19 19 19 19 19 21 26
21 21 21 20 20 22 24 23 21 20 21 23 23 22 22 23 26 29 31 32 31 30 32 33 31 31 32 30 28 28 28 28 28 29 29 30 30 32 33 34 35 36 36 36 35 35 35 35 35 35 32 29 26 24 23 22 22 22 21 21 23 24 26
18 18 19 19 20 22 24 23 20 19 19 21 21 20 21 24 26 25 25 22 18 17 21 27 29 29 29 29 29 29 28 27 28 28 29 29 29 30 31 34 36 37 36 36 36 36 35 33 33 34 34 35 35 32 29 25 25 26 23 20 20 21 23
16 17 19 20 21 22 24 23 19 16 17 18 19 20 21 23 20 17 16 15 14 14 14 17 24 27 27 28 28 28 28 27 26 27 28 29 29 29 30 34 36 34 33 34 35 35 35 32 32 32 31 33 34 34 31 26 23 24 22 17 14 14 18
18 19 20 21 21 20 21 22 18 15 15 17 18 18 19 18 14 12 14 14 13 14 14 13 15 19 22 24 25 26 27 26 25 27 28 29 30 29 30 34 35 31 32 33 32 33 34 33 33 32 32 33 33 32 31 28 26 24 20 16 13 13 16
18 20 20 20 20 19 19 21 20 16 13 14 15 16 16 14 12 12 14 14 13 12 13 14 14 14 15 18 19 21 24 24 25 27 27 28 30 31 34 36 33 29 31 31 31 32 34 34 34 33 34 35 36 35 34 31 30 26 21 18 18 17 14
18 20 21 20 19 19 18 19 19 14 11 12 14 14 14 13 12 12 14 16 14 13 13 15 16 16 16 15 15 17 20 21 23 26 29 30 29 31 36 37 31 29 31 31 30 32 33 34 34 33 33 33 35 38 38 34 32 30 25 22 21 21 16
18 19 21 20 19 18 17 17 17 14 10 12 13 12 12 13 13 13 15 16 15 14 15 15 16 17 16 15 15 17 19 20 20 21 25 30 32 33 36 34 30 30 30 29 29 29 29 31 32 32 32 32 34 37 38 36 34 33 30 27 26 24 20
17 19 21 21 19 17 15 14 14 13 11 11 11 11 12 13 12 13 15 16 14 14 15 15 17 19 18 15 15 17 19 21 23 22 19 22 29 33 35 34 33 29 26 26 27 26 26 27 27 28 29 31 33 35 36 35 34 34 33 32 31 29 25
17 17 19 20 17 15 14 12 11 10 10 10 10 11 11 12 12 13 15 16 15 14 16 17 18 19 18 16 16 17 18 19 20 19 16 14 17 21 25 29 30 26 23 25 25 23 24 25 23 24 26 28 31 33 33 32 33 33 34 34 34 33 31
15 15 15 16 16 15 13 11 9 8 8 8 9 11 12 12 12 13 14 16 16 16 17 18 19 19 19 18 16 15 14 13 14 13 10 10 11 12 15 18 22 24 22 23 23 21 21 22 22 24 25 26 28 28 28 29 30 32 34 34 33 33 31
14 13 12 13 15 16 14 11 8 7 7 8 10 11 12 12 13 13 14 15 16 16 17 18 19 18 17 15 13 12 12 13 13 12 11 11 12 12 11 12 17 23 23 20 20 20 20 21 22 24 25 25 25 24 23 24 26 28 29 28 28 28 27
12 11 11 13 15 16 15 12 9 7 8 9 10 9 11 13 14 14 14 15 16 17 16 17 16 16 14 13 12 11 11 11 10 10 10 11 11 11 10 9 11 18 22 22 22 21 21 22 22 23 23 23 22 22 22 22 22 23 24 24 24 25 25
11 11 11 12 13 15 14 11 8 8 9 11 11 10 12 14 14 14 15 17 18 17 15 14 13 13 12 12 10 8 7 6 6 6 6 6 7 9 8 7 6 10 16 21 22 22 23 23 21 20 20 20 19 21 22 22 22 22 22 23 23 22 23
14 14 13 13 14 13 10 8 8 9 10 12 12 13 15 15 13 13 17 20 20 16 13 11 10 10 9 8 7 6 4 3 2 2 2 2 3 4 5 5 5 5 7 11 15 17 19 20 20 19 19 19 20 21 22 23 23 23 23 23 20 20 20
15 15 15 15 14 10 6 7 9 11 12 13 13 14 15 14 12 13 18 18 14 8 7 7 6 6 5 4 3 2 1 2 2 2 2 2 2 2 3 3 3 3 2 2 5 8 11 13 15 17 17 18 19 21 23 23 22 23 23 22 20 20 21
17 18 15 12 8 6 6 8 11 12 13 14 13 13 13 12 12 15 15 12 8 4 4 4 3 2 1 1 2 3 4 5 5 5 5 5 5 5 5 5 5 6 6 4 1 2 5 7 9 11 12 13 14 16 18 19 21 24 24 21 19 22 24
15 12 9 5 3 4 6 9 11 13 13 12 12 11 11 11 13 13 10 7 6 5 3 2 2 2 2 3 4 5 5 5 5 6 6 6 6 6 6 6 7 7 7 6 4 3 1 3 5 7 9 10 12 13 14 14 16 20 23 22 20 23 25
6 3 2 3 5 6 8 9 10 11 11 10 10 10 10 11 10 7 4 5 5 2 3 4 4 4 4 4 5 6 6 5 5 5 6 5 5 5 6 7 7 7 7 5 5 5 3 2 2 3 5 7 9 11 13 13 13 15 19 21 20 21 23
2 2 3 5 5 6 8 9 9 9 9 9 9 9 9 8 5 3 4 5 4 4 6 5 5 5 5 5 5 6 5 5 6 6 6 6 5 5 5 5 5 6 6 5 5 5 4 4 3 3 4 5 7 8 10 11 12 13 15 16 17 18 19
4 4 4 4 4 5 6 6 7 7 6 7 8 8 7 5 5 3 3 1 3 5 5 4 4 5 5 5 5 6 6 6 6 7 8 8 7 6 6 4 4 5 6 7 6 5 4 4 4 4 5 5 6 7 8 10 10 11 13 14 14 15 16
8 6 4 3 3 3 4 4 4 4 4 5 6 6 5 6 7 4 1 3 4 5 5 4 4 4 4 4 5 5 6 7 7 8 9 10 10 9 7 5 4 5 7 7 6 5 5 5 5 5 5 6 6 7 7 8 9 10 12 14 14 15 15
7 5 3 3 2 2 3 3 2 2 3 5 6 4 3 4 4 5 5 6 6 5 5 5 4 3 3 3 4 5 6 7 7 8 9 10 10 10 9 7 6 7 8 9 8 7 6 6 6 6 6 6 7 8 9 9 10 11 12 13 14 16 16
Wind_Direction
283 284 284 285 286 287 288 287 284 279 274 270 268 268 268 268 266 264 264 263 261 259 256 255 255 255 255 253 250 250 252 253 254 255 255 255 256 256 256 259 262 268 278 275 271 275 278 283 291 293 293 294 293 287 285 289 291 291 293 294 296 297 296
283 283 283 284 285 285 284 282 277 272 269 267 266 265 265 265 264 264 264 263 261 259 257 256 255 255 255 254 252 250 251 253 254 254 254 253 252 254 254 253 255 259 266 272 271 272 276 279 284 286 287 291 294 293 292 290 287 286 289 291 293 293 291
280 281 283 284 284 283 280 276 272 268 265 263 263 264 264 263 263 264 264 263 262 261 259 257 256 256 256 254 253 252 251 252 253 252 252 252 251 252 252 251 251 253 258 265 267 267 271 274 275 278 281 285 289 290 292 291 288 287 288 289 291 291 288
278 280 282 283 282 281 278 273 269 265 262 260 261 262 263 264 264 265 265 264 263 263 260 258 256 255 255 254 252 251 250 249 249 249 250 252 252 250 250 250 248 250 254 260 264 262 263 268 270 272 275 280 285 286 287 288 288 288 289 287 287 288 287
277 280 281 281 280 278 274 270 267 264 261 259 259 260 262 264 265 264 264 264 264 263 261 259 258 257 255 253 250 250 250 248 247 248 249 249 250 250 249 248 247 249 253 256 260 262 262 264 266 268 271 274 280 285 286 287 286 286 287 286 285 285 284
278 280 280 279 277 273 270 268 265 263 262 261 259 259 260 262 263 264 264 264 264 264 262 260 259 258 256 252 250 250 250 249 248 247 247 246 248 249 248 247 246 246 249 252 256 260 261 260 260 265 269 271 275 280 284 286 286 284 281 281 282 282 282
279 279 278 276 272 268 268 267 265 263 262 260 259 259 261 262 262 263 264 264 265 264 262 260 258 257 255 252 251 250 249 248 247 246 246 246 246 245 244 245 247 248 248 249 253 255 255 256 256 260 265 269 272 275 277 278 279 280 278 275 276 278 280
278 278 275 271 268 267 267 265 264 263 261 260 260 259 260 260 260 262 264 266 267 266 263 262 259 257 255 253 251 251 249 248 246 245 245 245 244 243 243 244 246 248 248 249 251 252 251 252 253 254 258 263 267 267 268 268 266 267 271 272 273 275 278
277 276 274 270 267 266 265 263 261 260 259 260 261 261 262 263 264 265 267 269 272 271 266 263 261 260 258 257 255 254 253 251 248 245 245 245 242 239 240 242 243 244 245 246 249 250 249 249 247 246 248 253 255 256 261 265 262 261 265 267 268 270 271
278 276 273 271 268 265 263 262 262 261 259 259 260 262 265 269 271 272 271 271 272 273 271 266 263 263 262 261 260 258 255 251 246 243 245 246 244 240 237 236 237 239 241 242 245 246 245 246 246 243 241 244 248 253 259 262 259 258 261 263 264 267 266
278 276 273 272 270 268 266 267 268 267 264 261 259 259 261 265 269 271 272 270 268 270 272 269 264 263 263 261 260 257 253 248 242 240 242 243 243 242 239 236 234 235 236 238 242 243 239 239 245 246 243 242 246 248 251 252 251 251 255 256 255 261 264
277 276 274 272 272 271 270 271 271 269 266 264 262 260 259 260 263 266 268 268 265 265 267 266 263 262 261 260 260 259 255 250 245 242 240 241 241 240 239 237 235 234 234 234 237 240 238 237 242 244 240 238 238 238 241 246 250 253 256 253 247 247 257
276 275 273 272 272 272 273 273 273 271 268 267 266 265 263 263 263 263 264 265 263 261 261 261 259 259 258 258 259 258 256 255 251 247 243 242 242 242 241 239 237 236 235 234 233 236 239 240 242 245 240 231 226 227 234 244 253 259 263 260 250 242 249
275 274 273 273 273 274 276 275 275 276 273 270 270 268 267 268 268 268 267 266 265 262 258 256 254 253 255 256 255 254 254 254 253 251 247 243 242 241 242 242 241 240 238 236 232 232 236 239 241 246 248 241 231 229 234 244 253 260 265 268 266 260 260
274 274 274 274 274 275 277 277 277 279 276 273 272 272 273 274 274 274 273 272 273 269 260 254 250 249 252 254 255 255 255 253 252 250 247 244 243 242 241 242 243 242 240 239 237 235 237 239 239 241 245 248 250 249 248 250 257 264 269 276 282 283 279
270 270 271 273 274 276 278 278 277 278 277 275 275 276 278 280 279 280 281 284 297 299 273 255 248 248 251 253 256 257 257 254 250 247 244 242 243 244 244 245 246 244 241 240 240 240 240 241 241 241 241 243 246 250 252 252 257 262 267 273 278 279 274
264 267 271 275 276 277 279 280 279 278 279 278 278 280 283 283 285 293 300 306 322 331 310 267 249 248 251 254 257 261 260 252 244 241 240 240 241 242 244 249 253 249 244 241 242 242 243 242 242 242 241 240 240 243 244 243 247 252 256 260 263 266 266
270 274 276 277 277 277 279 281 282 282 282 280 280 284 289 292 297 307 314 317 318 321 323 305 270 257 255 257 263 268 267 257 245 239 237 237 240 239 241 249 253 250 246 245 242 243 244 244 243 243 241 239 239 240 238 235 237 243 247 249 251 260 268
274 277 278 278 278 278 276 278 283 285 282 281 284 290 295 302 309 311 313 315 310 304 309 309 294 279 270 270 272 272 269 263 252 242 236 236 237 235 241 250 251 246 246 245 241 241 242 242 242 242 242 240 239 240 239 238 241 245 247 252 257 264 271
273 277 279 279 280 280 277 279 284 286 283 281 285 294 302 306 310 312 310 308 305 302 304 303 295 286 279 277 280 280 279 276 264 248 239 236 233 233 242 252 251 246 245 242 240 241 241 240 241 241 241 240 238 239 240 240 244 247 248 252 258 263 265
276 279 281 282 282 282 281 281 283 285 286 281 283 295 307 306 306 308 305 301 300 300 300 300 299 297 291 282 280 283 286 288 284 268 249 238 234 239 249 253 250 247 244 237 237 241 240 241 242 240 240 240 238 238 239 238 240 243 245 249 253 258 262
279 280 282 285 283 282 284 286 285 285 282 278 283 298 304 301 298 297 294 293 296 297 294 292 296 302 302 294 286 284 285 287 291 291 277 253 243 246 253 254 249 244 237 229 230 233 234 237 239 238 238 238 236 237 238 237 237 240 243 247 250 253 258
279 280 282 284 284 285 290 293 291 286 280 277 289 301 301 296 290 285 285 290 294 293 289 288 291 296 298 295 288 285 285 288 294 296 290 274 258 252 256 255 244 232 225 224 222 223 226 230 232 232 233 234 233 235 235 235 236 240 243 247 252 254 256
274 275 275 278 282 290 298 301 299 289 280 285 298 302 300 297 289 284 284 287 289 287 285 284 285 288 292 290 284 282 285 293 303 305 297 292 286 276 274 262 237 220 217 218 213 212 218 223 225 227 228 230 231 231 232 233 236 240 244 248 253 256 258
267 265 265 269 277 288 299 305 299 282 277 294 305 304 302 299 293 290 289 287 287 286 281 277 278 283 287 287 283 284 287 288 295 299 295 295 296 292 290 273 236 219 213 210 209 212 216 219 223 226 228 230 231 230 232 235 238 243 248 251 255 259 261
257 256 259 263 270 282 293 296 286 271 283 303 310 310 310 305 298 296 294 290 288 285 278 276 278 280 283 285 285 285 286 284 284 285 282 284 290 289 288 278 244 223 215 212 215 218 219 221 222 224 228 232 231 230 232 233 236 240 244 248 252 255 256
248 250 253 258 269 279 284 283 277 279 296 309 314 313 310 304 300 299 298 296 296 295 290 284 276 269 270 276 276 272 271 270 269 271 270 273 284 289 288 286 270 240 224 220 221 222 224 226 225 223 225 226 225 227 231 231 232 236 239 242 243 242 244
250 251 251 260 271 276 274 274 281 292 303 308 308 304 300 298 300 302 300 300 300 296 284 270 258 254 263 271 268 263 261 256 250 259 278 284 286 290 292 291 289 269 236 223 222 224 225 226 224 223 225 226 225 229 233 233 232 235 237 238 234 229 232
254 261 267 270 270 264 260 275 286 293 299 300 299 297 295 297 303 303 299 302 304 286 252 244 245 253 267 275 279 299 340 24 30 33 40 33 21 2 340 333 338 344 336 252 219 219 220 219 216 219 224 226 226 230 235 236 234 235 238 236 229 224 229
261 271 275 268 256 247 257 278 288 294 297 297 296 296 296 298 303 300 294 296 306 298 267 254 245 245 295 5 54 47 41 36 29 23 25 28 30 29 23 21 23 19 11 4 341 233 227 225 221 223 228 229 232 238 241 239 236 236 235 231 223 221 226
260 270 268 253 255 277 282 286 291 294 295 295 296 298 300 302 304 302 296 293 300 296 272 230 178 116 69 58 62 49 35 31 26 16 10 11 18 24 25 22 18 14 10 10 14 14 314 253 244 240 241 243 245 250 253 251 246 238 229 224 221 220 222
259 278 276 285 300 301 299 299 298 296 295 297 299 301 302 304 309 315 310 292 280 236 149 129 111 92 65 46 45 41 28 21 17 7 1 1 2 5 13 17 13 5 0 1 7 9 7 348 301 271 262 258 255 257 259 261 262 250 233 223 219 219 220
344 5 323 312 305 298 300 300 295 294 297 299 302 305 302 300 314 345 322 282 238 155 124 111 100 86 61 40 33 27 21 17 8 359 355 353 346 343 351 4 12 5 354 349 352 350 344 339 326 309 297 284 272 268 264 260 261 261 249 232 218 214 217
275 285 297 310 298 290 299 300 295 300 307 306 309 316 306 272 247 267 305 260 155 128 107 97 94 78 55 38 26 15 13 12 3 354 351 349 343 338 339 348 6 5 351 340 338 334 327 321 318 311 307 300 288 280 273 265 260 258 254 244 228 217 215
264 264 266 282 286 297 318 317 305 306 318 328 334 329 293 242 226 223 112 91 100 98 90 85 78 65 48 32 19 11 9 5 359 352 349 348 344 339 337 343 357 353 339 330 329 330 323 315 310 305 301 299 293 282 274 270 265 257 254 251 241 229 223
269 266 241 218 227 288 336 346 359 9 12 16 9 341 251 194 156 120 99 87 77 78 83 78 63 55 45 27 19 16 10 2 354 346 343 344 343 340 340 345 346 334 324 321 325 329 325 316 310 303 300 300 294 284 276 273 272 268 263 258 250 240 230
Height
787 786 785 785 784 783 783 782 782 781 781 781 780 780 780 779 779 778 778 778 778 778 778 778 778 777 778 778 778 779 779 779 780 780 780 781 780 780 780 780 780 777 772 772 774 773 772 773 773 772 773 773 772 773 773 774 774 775 776 776 776 777 777
784 784 783 782 781 780 780 779 779 779 778 778 777 777 777 776 776 775 775 775 775 775 775 775 775 774 774 775 775 775 776 776 777 777 777 777 778 778 778 778 778 776 773 771 772 772 771 773 773 771 771 772 772 772 772 772 772 773 773 774 774 774 774
781 780 780 779 778 777 777 776 776 776 775 775 774 774 773 773 773 772 772 772 771 771 772 771 771 771 771 772 771 772 772 773 773 774 774 774 775 775 775 775 775 774 772 770 770 771 770 770 771 770 770 771 771 771 771 770 770 770 771 771 772 772 772
777 777 776 776 775 774 773 773 772 772 771 771 770 770 770 769 769 769 768 768 767 768 768 768 767 767 767 768 768 768 768 769 769 770 770 771 771 772 772 772 773 771 770 769 768 768 768 769 769 768 768 769 769 769 769 769 769 769 769 768 769 769 769
774 774 773 772 772 771 770 769 769 768 768 767 767 767 766 766 766 765 765 764 764 764 764 764 763 763 764 764 764 764 764 765 765 766 766 767 767 768 768 769 769 769 768 768 766 766 766 767 767 766 766 767 767 767 767 767 767 767 767 766 766 766 766
771 770 770 769 768 768 767 766 766 765 764 764 763 763 763 762 762 761 761 761 760 760 760 760 759 759 760 760 760 760 760 760 761 762 762 763 763 764 765 765 765 765 765 765 764 764 764 765 765 764 763 764 766 765 764 764 764 763 764 764 763 763 763
767 767 766 766 765 764 764 763 762 761 761 760 760 759 759 758 758 758 757 757 757 756 756 755 755 755 755 755 755 755 755 756 757 757 758 758 759 760 761 761 761 762 762 761 761 761 761 762 762 762 761 761 763 763 762 763 762 760 760 761 761 760 760
764 763 763 762 761 761 761 759 759 758 757 756 756 756 756 755 755 754 754 753 752 752 752 751 750 750 750 750 750 750 751 751 752 753 753 754 755 756 756 757 758 758 758 758 758 757 758 759 759 759 758 759 761 760 759 760 760 758 757 758 758 757 757
760 760 759 758 758 757 757 756 755 754 753 753 753 752 752 751 751 751 750 749 748 747 747 746 746 745 745 745 745 745 746 746 747 749 748 748 750 751 752 753 754 754 755 755 754 754 755 756 755 754 755 756 757 757 756 757 758 756 755 755 754 753 754
757 756 755 754 754 753 753 752 751 750 750 750 750 749 749 748 747 747 746 745 744 742 742 742 741 740 740 740 741 741 741 742 743 744 743 743 745 746 747 749 750 750 751 751 750 750 751 751 749 749 752 752 753 754 754 755 756 754 753 752 751 749 749
752 752 751 750 750 749 749 748 746 746 746 746 747 747 746 745 743 743 741 740 739 737 736 736 736 735 735 735 736 736 737 738 739 740 740 740 741 741 742 744 745 746 746 747 746 746 746 746 744 746 748 749 750 751 751 751 752 751 750 749 749 746 745
748 748 747 747 746 745 744 743 743 743 743 743 743 743 743 742 740 739 737 736 734 733 731 731 731 731 730 730 731 731 732 733 734 735 736 736 737 738 738 738 739 739 741 742 742 742 741 741 740 742 743 744 745 747 747 747 748 748 747 746 745 744 742
745 744 744 743 742 741 740 739 739 739 739 739 739 739 739 738 737 735 733 731 730 728 727 726 726 726 726 725 726 727 728 728 729 730 731 732 733 734 734 734 734 734 735 735 737 737 737 737 738 738 737 738 741 742 743 744 744 744 744 743 742 741 739
741 740 740 740 739 737 737 735 735 735 735 735 735 735 735 734 732 731 729 726 724 722 721 721 721 721 721 721 722 723 723 724 724 725 726 727 728 729 729 730 730 730 730 730 731 731 731 733 735 735 735 736 737 739 740 741 741 742 741 740 739 738 737
737 737 736 736 736 735 733 732 732 732 731 731 731 731 731 730 728 726 724 721 719 717 716 715 716 717 717 717 718 718 719 720 720 721 721 722 723 723 724 724 724 725 725 726 726 725 725 727 730 732 733 734 734 735 737 738 739 739 739 738 737 736 735
734 733 733 733 733 732 730 728 728 729 728 728 727 727 727 725 723 722 719 717 715 713 712 711 712 712 713 713 714 714 715 715 716 717 717 718 718 718 719 718 717 719 720 721 722 722 722 723 725 727 729 730 731 733 734 736 737 736 736 737 736 734 732
731 730 730 730 729 728 727 725 725 725 724 724 724 724 723 721 720 718 716 714 713 711 710 709 709 709 709 710 710 710 711 712 712 712 713 713 714 714 714 712 711 714 716 716 717 718 719 720 722 723 725 726 727 729 731 734 733 732 733 735 734 731 728
728 727 727 726 725 725 724 722 721 722 721 721 721 721 720 718 717 715 713 712 711 710 709 708 707 707 707 707 707 707 707 708 708 709 709 709 709 710 709 707 706 709 710 711 713 714 715 716 717 719 720 722 723 725 727 728 728 728 730 731 729 727 725
725 724 723 723 722 722 722 720 718 718 718 717 717 717 717 715 714 713 711 710 710 709 708 708 707 706 706 705 704 704 703 704 704 704 705 704 705 705 703 701 702 705 705 706 708 709 709 711 712 714 716 717 718 720 722 723 724 724 726 726 726 725 724
722 721 720 719 719 718 718 717 716 715 715 715 714 714 714 713 712 711 710 709 708 707 706 706 705 704 703 703 702 701 700 699 699 700 700 699 700 699 697 696 698 700 700 701 702 703 704 706 707 709 711 712 713 715 716 719 720 720 722 723 723 723 722
719 718 717 716 716 715 714 714 714 713 712 712 712 712 711 710 710 709 708 707 706 705 704 703 703 702 701 700 699 698 697 696 695 695 695 694 694 693 692 693 695 695 695 697 698 699 701 702 703 705 706 707 708 709 711 714 715 716 718 720 720 719 718
716 715 714 713 712 712 711 711 711 711 710 710 710 710 709 708 708 707 707 705 704 703 702 701 701 700 699 698 697 696 695 693 692 691 690 689 689 689 689 690 690 690 692 693 694 696 697 698 699 701 701 702 703 704 706 709 711 712 714 715 716 716 715
713 713 712 710 709 708 708 708 708 708 708 708 708 707 707 706 706 705 705 703 702 701 701 699 699 698 697 696 695 693 693 691 690 688 687 686 685 685 686 686 686 687 689 690 691 693 694 695 696 696 697 698 698 700 702 704 706 708 709 710 711 711 712
711 711 710 708 707 706 705 706 706 706 706 706 705 705 705 704 703 703 702 701 700 699 698 697 697 696 695 694 692 691 690 689 687 686 685 684 683 683 683 683 683 684 685 687 688 689 690 691 692 692 693 694 694 696 698 700 702 704 705 706 707 707 708
708 708 708 707 705 704 703 703 704 704 704 703 703 703 702 701 701 700 699 698 697 696 696 695 694 693 692 691 690 689 687 686 685 685 684 683 682 682 681 681 680 681 682 684 685 685 686 686 687 688 689 690 692 694 696 697 699 700 701 702 703 703 703
706 706 706 705 703 702 701 701 702 702 702 701 701 700 699 699 698 697 696 695 694 693 693 692 691 691 690 689 688 686 686 685 684 683 682 682 682 681 680 679 678 678 679 680 680 681 681 682 683 685 686 688 690 691 693 694 695 697 698 699 699 699 699
703 703 703 702 701 700 699 700 700 700 699 699 698 698 697 696 695 694 694 692 691 690 689 689 688 688 687 687 686 685 684 683 682 681 681 680 680 680 679 678 677 676 676 676 676 677 678 679 681 682 684 686 687 688 689 691 692 693 694 695 696 696 696
700 700 700 699 699 698 698 698 698 698 697 697 696 696 695 694 693 692 691 689 687 686 686 686 686 686 685 685 684 683 682 682 681 680 680 679 679 678 678 677 676 675 674 674 674 675 676 677 678 680 681 683 684 685 686 688 689 690 690 691 692 693 693
697 696 696 697 697 696 696 696 696 696 696 695 694 693 692 691 691 690 689 687 685 684 684 684 684 684 683 683 682 682 681 680 680 679 679 678 678 677 677 676 675 674 674 673 673 673 674 675 676 677 678 680 681 681 682 684 685 686 686 687 688 688 689
695 694 694 695 694 694 694 694 694 694 693 692 692 691 690 689 689 688 687 685 684 683 683 683 683 683 683 682 682 681 681 680 679 679 679 678 678 677 676 676 675 674 674 673 672 672 672 673 674 674 676 677 677 678 679 680 681 681 682 683 684 684 685
693 693 693 693 692 692 693 693 692 692 691 690 690 689 688 688 687 686 685 684 683 682 682 682 682 682 682 682 681 681 680 680 679 679 679 678 678 677 676 676 675 674 674 673 672 672 672 672 673 673 674 675 675 676 676 677 677 677 677 678 679 680 681
692 691 690 691 691 691 691 691 690 690 689 688 688 687 686 686 685 684 683 682 682 682 682 682 682 682 682 681 681 681 680 680 679 679 679 678 678 677 676 676 675 674 674 673 673 672 672 672 672 672 673 673 673 674 674 674 675 675 674 674 675 676 677
689 688 688 689 689 689 689 689 689 688 688 687 686 685 685 685 684 682 681 681 681 681 681 681 681 681 681 681 681 680 680 680 680 679 679 678 678 677 676 676 675 675 674 673 673 672 672 672 672 672 672 672 672 672 672 672 673 673 672 672 672 672 674
687 687 687 688 688 689 689 688 687 687 687 686 685 684 683 683 682 681 680 680 680 680 680 680 681 681 681 681 681 680 680 680 679 679 678 677 677 676 676 675 675 674 674 673 672 672 672 671 671 671 671 671 671 671 671 670 670 671 671 670 670 670 671
686 686 686 687 687 688 688 687 686 686 686 685 684 682 681 681 681 680 680 679 679 679 680 680 680 681 681 681 680 680 680 679 679 678 678 677 676 675 675 674 674 674 673 673 672 671 671 671 671 670 670 670 670 669 669 669 668 668 669 668 668 668 668
686 685 686 686 686 686 686 686 686 685 685 684 683 681 680 680 679 679 679 679 679 679 679 680 680 680 680 681 680 680 680 679 678 678 677 676 675 674 673 673 673 673 672 671 671 671 670 670 670 670 669 669 668 668 668 667 667 667 666 666 666 666 666